Time,TemperatureF,DewpointF,PressureIn,WindDirection,WindDirectionDegrees,WindSpeedMPH,WindSpeedGustMPH,Humidity,HourlyPrecipIn,Conditions,Clouds,dailyrainin,SoftwareType,DateUTC
2013-01-16 00:02:00,17.0,15.0,-100.00,NNE,30,2.0,3.0,91,-99.99,,,-99.99,,2013-01-16 08:02:00,
2013-01-16 00:10:00,14.0,11.0,-100.00,North,5,1.0,2.0,87,-99.99,,,-99.99,,2013-01-16 08:10:00,
2013-01-16 01:02:00,14.0,11.0,-100.00,North,5,1.0,2.0,87,-99.99,,,-99.99,,2013-01-16 09:02:00,
2013-01-16 02:02:00,13.0,10.0,-100.00,East,80,2.0,5.0,87,-99.99,,,-99.99,,2013-01-16 10:02:00,
2013-01-16 02:12:00,13.0,10.0,-100.00,East,80,2.0,5.0,87,-99.99,,,-99.99,,2013-01-16 10:12:00,
2013-01-16 03:02:00,11.0,8.0,-100.00,ENE,65,2.0,3.0,87,-99.99,,,-99.99,,2013-01-16 11:02:00,
2013-01-16 03:12:00,11.0,8.0,-100.00,ENE,65,2.0,3.0,87,-99.99,,,-99.99,,2013-01-16 11:12:00,
2013-01-16 04:03:00,15.0,11.0,-100.00,North,360,1.0,2.0,83,-99.99,,,-99.99,,2013-01-16 12:03:00,
2013-01-16 04:12:00,15.0,11.0,-100.00,North,360,1.0,2.0,83,-99.99,,,-99.99,,2013-01-16 12:12:00,
2013-01-16 05:02:00,14.0,11.0,-100.00,ENE,65,3.0,5.0,87,-99.99,,,-99.99,,2013-01-16 13:02:00,
2013-01-16 05:10:00,16.0,13.0,-100.00,North,10,3.0,5.0,87,-99.99,,,-99.99,,2013-01-16 13:10:00,
2013-01-16 05:12:00,14.0,11.0,-100.00,ENE,65,3.0,5.0,87,-99.99,,,-99.99,,2013-01-16 13:12:00,
2013-01-16 06:03:00,16.0,13.0,-100.00,North,10,3.0,5.0,87,-99.99,,,-99.99,,2013-01-16 14:03:00,
2013-01-16 06:10:00,15.0,12.0,-100.00,ESE,105,3.0,7.0,87,-99.99,,,-99.99,,2013-01-16 14:10:00,
2013-01-16 07:03:00,15.0,12.0,-100.00,ESE,105,3.0,7.0,87,-99.99,,,-99.99,,2013-01-16 15:03:00,
2013-01-16 07:10:00,16.0,13.0,-100.00,ENE,70,5.0,7.0,87,-99.99,,,-99.99,,2013-01-16 15:10:00,
2013-01-16 08:03:00,16.0,13.0,-100.00,ENE,70,5.0,7.0,87,-99.99,,,-99.99,,2013-01-16 16:03:00,
2013-01-16 09:02:00,17.0,14.0,-100.00,ENE,60,3.0,5.0,87,-99.99,,,-99.99,,2013-01-16 17:02:00,
2013-01-16 09:10:00,20.0,17.0,-100.00,ENE,60,3.0,5.0,87,-99.99,,,-99.99,,2013-01-16 17:10:00,
2013-01-16 09:12:00,17.0,14.0,-100.00,ENE,60,3.0,5.0,87,-99.99,,,-99.99,,2013-01-16 17:12:00,
2013-01-16 10:02:00,20.0,17.0,-100.00,ENE,60,3.0,5.0,87,-99.99,,,-99.99,,2013-01-16 18:02:00,
2013-01-16 10:10:00,23.0,20.0,-100.00,NNE,15,3.0,5.0,88,-99.99,,,-99.99,,2013-01-16 18:10:00,
2013-01-16 11:03:00,23.0,20.0,-100.00,NNE,15,3.0,5.0,88,-99.99,,,-99.99,,2013-01-16 19:03:00,
2013-01-16 11:10:00,28.0,20.0,-100.00,NE,45,1.0,2.0,71,-99.99,,,-99.99,,2013-01-16 19:10:00,
2013-01-16 12:03:00,28.0,20.0,-100.00,NE,45,1.0,2.0,71,-99.99,,,-99.99,,2013-01-16 20:03:00,
2013-01-16 12:10:00,31.0,19.0,-100.00,East,90,2.0,3.0,60,-99.99,,,-99.99,,2013-01-16 20:10:00,
2013-01-16 13:02:00,31.0,19.0,-100.00,East,90,2.0,3.0,60,-99.99,,,-99.99,,2013-01-16 21:02:00,
2013-01-16 13:10:00,34.0,19.0,-100.00,ENE,70,1.0,1.0,53,-99.99,,,-99.99,,2013-01-16 21:10:00,
2013-01-16 14:02:00,34.0,19.0,-100.00,ENE,70,1.0,1.0,53,-99.99,,,-99.99,,2013-01-16 22:02:00,
2013-01-16 14:10:00,34.0,19.0,-100.00,ENE,70,2.0,3.0,53,-99.99,,,-99.99,,2013-01-16 22:10:00,
2013-01-16 15:02:00,34.0,19.0,-100.00,ENE,70,2.0,3.0,53,-99.99,,,-99.99,,2013-01-16 23:02:00,
2013-01-16 16:02:00,32.0,19.0,-100.00,NNE,20,1.0,1.0,58,-99.99,,,-99.99,,2013-01-17 00:02:00,
2013-01-16 16:10:00,28.0,18.0,-100.00,North,355,1.0,1.0,65,-99.99,,,-99.99,,2013-01-17 00:10:00,
2013-01-16 16:12:00,32.0,19.0,-100.00,NNE,20,1.0,1.0,58,-99.99,,,-99.99,,2013-01-17 00:12:00,
2013-01-16 17:02:00,28.0,18.0,-100.00,North,355,1.0,1.0,65,-99.99,,,-99.99,,2013-01-17 01:02:00,
2013-01-16 17:10:00,18.0,13.0,-100.00,East,100,3.0,3.0,80,-99.99,,,-99.99,,2013-01-17 01:10:00,
2013-01-16 18:02:00,18.0,13.0,-100.00,East,100,3.0,3.0,80,-99.99,,,-99.99,,2013-01-17 02:02:00,
2013-01-16 18:10:00,20.0,16.0,-100.00,North,360,2.0,3.0,84,-99.99,,,-99.99,,2013-01-17 02:10:00,
2013-01-16 19:02:00,20.0,16.0,-100.00,North,360,2.0,3.0,84,-99.99,,,-99.99,,2013-01-17 03:02:00,
2013-01-16 20:02:00,17.0,14.0,-100.00,North,10,3.0,3.0,87,-99.99,,,-99.99,,2013-01-17 04:02:00,
2013-01-16 20:10:00,17.0,14.0,-100.00,North,5,1.0,2.0,87,-99.99,,,-99.99,,2013-01-17 04:10:00,
2013-01-16 20:12:00,17.0,14.0,-100.00,North,10,3.0,3.0,87,-99.99,,,-99.99,,2013-01-17 04:12:00,
2013-01-16 21:04:00,17.0,14.0,-100.00,North,5,1.0,2.0,87,-99.99,,,-99.99,,2013-01-17 05:04:00,
2013-01-16 22:02:00,14.0,11.0,-100.00,North,355,1.0,2.0,87,-99.99,,,-99.99,,2013-01-17 06:02:00,
2013-01-16 22:12:00,14.0,11.0,-100.00,North,355,1.0,2.0,87,-99.99,,,-99.99,,2013-01-17 06:12:00,
2013-01-16 23:02:00,12.0,9.0,-100.00,East,100,2.0,2.0,87,-99.99,,,-99.99,,2013-01-17 07:02:00,
2013-01-16 23:12:00,12.0,9.0,-100.00,East,100,2.0,2.0,87,-99.99,,,-99.99,,2013-01-17 07:12:00,